FDX457 PHNL-KMEM

Flight info

Callsign FDX457
Flight time N/A
Altitude 31000
Route MKK5 CODDY DCT FITES R578 FOOTS/N0486F330 R578 FICKY C1177 SXC DCT PKE DCT DRK DCT SJN J74 TXO J72 SPS DCT TXK HOBRK4
Aircraft B77L/H-VGDW/C

Departure

Time 2026-05-05 11:50
Airport Daniel K. Inouye International Airport (PHNL)

Arrival

Time N/A
Airport Memphis International Airport (KMEM)
Time Latitude Longitude Altitude Speed Heading
2026-05-05 10:37 21.31825 -157.91644 28 ft 0 kts 143°
2026-05-05 11:38 21.31836 -157.91653 28 ft 3 kts 143°
2026-05-05 11:38 21.31852 -157.91666 28 ft 3 kts 143°
2026-05-05 11:39 21.31868 -157.91679 28 ft 3 kts 142°
2026-05-05 11:39 21.31884 -157.91693 28 ft 3 kts 142°
2026-05-05 11:39 21.31898 -157.91703 28 ft 3 kts 171°
2026-05-05 11:39 21.31913 -157.91700 28 ft 3 kts 223°
2026-05-05 11:40 21.31927 -157.91685 28 ft 3 kts 218°
2026-05-05 11:40 21.31934 -157.91680 28 ft 0 kts 215°
2026-05-05 11:43 21.31923 -157.91689 28 ft 4 kts 217°
2026-05-05 11:43 21.31888 -157.91724 28 ft 9 kts 228°
2026-05-05 11:44 21.31845 -157.91780 28 ft 10 kts 232°
2026-05-05 11:44 21.31800 -157.91844 28 ft 11 kts 233°
2026-05-05 11:44 21.31751 -157.91915 28 ft 12 kts 233°
2026-05-05 11:44 21.31698 -157.91991 29 ft 13 kts 233°
2026-05-05 11:45 21.31640 -157.92071 29 ft 14 kts 232°
2026-05-05 11:45 21.31605 -157.92121 29 ft 0 kts 233°
2026-05-05 11:45 21.31604 -157.92123 29 ft 2 kts 233°
2026-05-05 11:45 21.31577 -157.92161 29 ft 11 kts 233°
2026-05-05 11:46 21.31528 -157.92230 29 ft 12 kts 233°
2026-05-05 11:46 21.31480 -157.92299 29 ft 12 kts 233°
2026-05-05 11:46 21.31432 -157.92366 29 ft 12 kts 232°
2026-05-05 11:46 21.31384 -157.92435 29 ft 12 kts 233°
2026-05-05 11:47 21.31336 -157.92504 29 ft 12 kts 233°
2026-05-05 11:47 21.31294 -157.92574 29 ft 10 kts 253°
2026-05-05 11:47 21.31315 -157.92633 29 ft 9 kts 317°
2026-05-05 11:47 21.31362 -157.92673 29 ft 9 kts 323°
2026-05-05 11:48 21.31430 -157.92658 29 ft 1 kts 50°
2026-05-05 11:49 21.31431 -157.92658 29 ft 0 kts 50°
2026-05-05 11:49 21.31486 -157.92583 28 ft 44 kts 52°
2026-05-05 11:50 21.31844 -157.92075 27 ft 125 kts 53°
2026-05-05 11:50 21.32520 -157.91119 50 ft 191 kts 53°
2026-05-05 11:50 21.33343 -157.89934 635 ft 195 kts 54°
2026-05-05 11:50 21.34150 -157.88780 1485 ft 197 kts 53°
2026-05-05 11:51 21.34841 -157.87476 1975 ft 209 kts 77°
2026-05-05 11:51 21.34727 -157.85852 2067 ft 231 kts 109°
2026-05-05 11:51 21.34089 -157.84280 2580 ft 234 kts 113°
2026-05-05 11:51 21.33441 -157.82648 3139 ft 239 kts 110°
2026-05-05 11:52 21.32858 -157.80966 3768 ft 242 kts 110°
2026-05-05 11:52 21.32273 -157.79225 4288 ft 253 kts 109°
2026-05-05 11:52 21.31692 -157.77412 4841 ft 262 kts 108°
2026-05-05 11:52 21.31097 -157.75557 5438 ft 265 kts 107°
2026-05-05 11:53 21.30533 -157.73653 6100 ft 270 kts 107°
2026-05-05 11:53 21.29960 -157.71720 6780 ft 273 kts 108°
2026-05-05 11:53 21.29379 -157.69769 7452 ft 277 kts 108°
2026-05-05 11:53 21.28790 -157.67784 8074 ft 281 kts 108°
2026-05-05 11:54 21.28196 -157.65773 8646 ft 285 kts 108°
2026-05-05 11:54 21.27597 -157.63732 9231 ft 289 kts 108°
2026-05-05 11:54 21.26989 -157.61663 9807 ft 293 kts 108°
2026-05-05 11:54 21.26379 -157.59580 10277 ft 301 kts 108°
2026-05-05 11:55 21.25730 -157.57363 10447 ft 321 kts 108°
2026-05-05 11:55 21.25040 -157.55006 10600 ft 341 kts 108°
2026-05-05 11:55 21.24311 -157.52514 10755 ft 360 kts 108°
2026-05-05 11:55 21.23540 -157.49879 10988 ft 376 kts 108°
2026-05-05 11:56 21.22746 -157.47163 11411 ft 386 kts 108°
2026-05-05 11:56 21.21944 -157.44427 11942 ft 392 kts 108°
2026-05-05 11:56 21.21121 -157.41618 12555 ft 396 kts 108°
2026-05-05 11:56 21.20292 -157.38786 13136 ft 400 kts 108°
2026-05-05 11:57 21.19453 -157.35921 13717 ft 404 kts 108°
2026-05-05 11:57 21.18604 -157.33034 14299 ft 407 kts 108°
2026-05-05 11:57 21.17747 -157.30118 14838 ft 411 kts 108°
2026-05-05 11:57 21.16884 -157.27181 15363 ft 415 kts 108°
2026-05-05 11:58 21.16024 -157.24253 15881 ft 419 kts 108°
2026-05-05 11:58 21.15142 -157.21265 16401 ft 421 kts 108°
2026-05-05 11:58 21.14525 -157.18191 16762 ft 427 kts 94°
2026-05-05 11:58 21.14684 -157.14995 17171 ft 432 kts 79°
2026-05-05 11:59 21.15569 -157.11919 17639 ft 431 kts 66°
2026-05-05 11:59 21.16791 -157.08965 18057 ft 436 kts 66°
2026-05-05 11:59 21.18026 -157.05982 18481 ft 440 kts 66°
2026-05-05 11:59 21.19241 -157.03008 18925 ft 443 kts 66°
2026-05-05 12:00 21.20469 -156.99962 19389 ft 446 kts 66°
2026-05-05 12:00 21.21699 -156.96887 19822 ft 449 kts 66°
2026-05-05 12:00 21.22930 -156.93792 20226 ft 453 kts 66°
2026-05-05 12:00 21.24169 -156.90665 20618 ft 456 kts 67°
2026-05-05 12:01 21.25417 -156.87515 21005 ft 460 kts 67°
2026-05-05 12:01 21.26671 -156.84345 21416 ft 463 kts 67°
2026-05-05 12:01 21.27914 -156.81201 21789 ft 466 kts 67°
2026-05-05 12:01 21.29183 -156.77990 22140 ft 469 kts 67°
2026-05-05 12:02 21.30462 -156.74751 22511 ft 472 kts 67°
2026-05-05 12:02 21.31736 -156.71496 22868 ft 475 kts 69°
2026-05-05 12:02 21.32774 -156.68116 23212 ft 478 kts 76°
2026-05-05 12:02 21.33485 -156.64624 23546 ft 481 kts 81°
2026-05-05 12:03 21.33875 -156.61052 23884 ft 483 kts 87°
2026-05-05 12:03 21.34083 -156.57440 24195 ft 486 kts 87°
2026-05-05 12:03 21.34278 -156.53804 24519 ft 488 kts 87°
2026-05-05 12:03 21.34475 -156.50200 24836 ft 491 kts 87°
2026-05-05 12:04 21.34683 -156.46533 25146 ft 493 kts 87°
2026-05-05 12:04 21.34901 -156.42840 25458 ft 496 kts 87°
2026-05-05 12:04 21.35126 -156.39126 25745 ft 499 kts 86°
2026-05-05 12:04 21.35354 -156.35408 26046 ft 501 kts 86°
2026-05-05 12:05 21.35583 -156.31722 26346 ft 503 kts 86°
2026-05-05 12:05 21.35815 -156.27962 26636 ft 505 kts 86°
2026-05-05 12:05 21.36044 -156.24189 26935 ft 508 kts 86°
2026-05-05 12:05 21.36275 -156.20403 27208 ft 510 kts 86°
2026-05-05 12:06 21.36507 -156.16589 27485 ft 513 kts 86°
2026-05-05 12:06 21.36739 -156.12760 27772 ft 515 kts 86°
2026-05-05 12:06 21.36970 -156.08908 28039 ft 517 kts 86°
2026-05-05 12:06 21.37198 -156.05098 28302 ft 519 kts 86°
2026-05-05 12:07 21.37429 -156.01227 28558 ft 521 kts 86°
2026-05-05 12:07 21.37659 -155.97338 28804 ft 523 kts 86°
2026-05-05 12:07 21.37889 -155.93435 29070 ft 524 kts 86°